This is the latest recevied weather packets stored in our database for station/object KN6WGU. If no packets are shown the sender has not sent any weather packets the latest 10 day(s).
| Time | Temp. | Humidity | Pressure | Rain* | Wind** | Luminosity | Snow |
|---|---|---|---|---|---|---|---|
| 1777932417 | 22.78° C | 53% | 995.9 hPa | 0 mm | - | 67 W/m² | - |
| 1777932115 | 22.78° C | 53% | 995.9 hPa | 0 mm | - | 81 W/m² | - |
| 1777931811 | 22.78° C | 54% | 995.9 hPa | 0 mm | - | 113 W/m² | - |
| 1777931508 | 22.78° C | 53% | 996.1 hPa | 0 mm | - | 67 W/m² | - |
| 1777931204 | 22.78° C | 53% | 996.3 hPa | 0 mm | - | 215 W/m² | - |
| 1777930901 | 22.78° C | 52% | 996 hPa | 0 mm | - | 129 W/m² | - |
| 1777930597 | 22.78° C | 52% | 995.7 hPa | 0 mm | - | 58 W/m² | - |
| 1777930294 | 23.33° C | 52% | 996 hPa | 0 mm | - | 113 W/m² | - |
| 1777929990 | 22.78° C | 55% | 996.1 hPa | 0 mm | - | 227 W/m² | - |
| 1777929687 | 22.78° C | 57% | 995.8 hPa | 0 mm | - | 121 W/m² | - |
| 1777929385 | 23.33° C | 50% | 996 hPa | 0 mm | - | 42 W/m² | - |
| 1777929081 | 23.89° C | 51% | 996 hPa | 0 mm | - | 76 W/m² | - |
| 1777928779 | 23.33° C | 50% | 996.1 hPa | 0 mm | - | 96 W/m² | - |
| 1777928475 | 23.33° C | 50% | 996.4 hPa | 0 mm | - | 128 W/m² | - |
| 1777928173 | 23.33° C | 50% | 996.4 hPa | 0 mm | - | 196 W/m² | - |
| 1777927870 | 23.89° C | 50% | 996.1 hPa | 0 mm | - | 170 W/m² | - |
| 1777927568 | 22.78° C | 51% | 996.5 hPa | 0 mm | - | 137 W/m² | - |
| 1777927267 | 23.33° C | 49% | 996.5 hPa | 0 mm | - | 149 W/m² | - |
| 1777926965 | 23.33° C | 50% | 996.5 hPa | 0 mm | - | 189 W/m² | - |
| 1777926662 | 23.33° C | 48% | 996.7 hPa | 0 mm | - | 112 W/m² | - |
| 1777926357 | 24.44° C | 48% | 996.5 hPa | 0 mm | - | 137 W/m² | - |
| 1777926054 | 24.44° C | 49% | 996.6 hPa | 0 mm | - | 501 W/m² | - |
| 1777925751 | 23.89° C | 48% | 996.5 hPa | 0 mm | - | 509 W/m² | - |
| 1777925449 | 23.89° C | 46% | 996.7 hPa | 0 mm | - | 232 W/m² | - |
| 1777925145 | 24.44° C | 45% | 996.9 hPa | 0 mm | - | 562 W/m² | - |
* Rain latest hour (hover to see other rain measurements)
** Current wind speed in m/s (hover to see current wind gust speed)